Kokomo, IN

7:02 PM EST on December 03, 2016 (GMT -0500)
Kokomo Municipal

Weather History for KOKK - May, 2013

Change the Weather History Date:

Tuesday, May 28, 2013

  Actual Average (KGUS) Record (KGUS)
Temperature  
Mean Temperature 71 °F -  
Max Temperature 80 °F 70 °F 93 °F (2012)
Min Temperature 62 °F 54 °F 43 °F (2008)
Cooling Degree Days 6    
Growing Degree Days 21 (Base 50)    
Moisture  
Dew Point 65 °F    
Average Humidity 75    
Maximum Humidity 94    
Minimum Humidity 61    
Precipitation  
Precipitation 0.00 in - - ()
Sea Level Pressure  
Sea Level Pressure 29.89 in    
Wind  
Wind Speed 13 mph (SSW)    
Max Wind Speed 26 mph    
Max Gust Speed 37 mph    
Visibility 10 miles    
Events      
Averages and records for this station are not official NWS values.
T = Trace of Precipitation, MM = Missing Value Source: NWS Daily Summary

Daily Weather History Graph

Daily Weather History Graph

Search for Another Location

Airport or City:

Trip Planner

Search our weather history database for the weather conditions in past years. The results will help you decide how hot, cold, wet, or windy it might be!

Date:

Astronomy

May. 28, 2013 Rise Set
Actual Time 5:17 AM CDT 8:05 PM CDT
Civil Twilight 4:45 AM CDT 8:38 PM CDT
Nautical Twilight 4:05 AM CDT 9:18 PM CDT
Astronomical Twilight 3:18 AM CDT 10:05 PM CDT
Moon 11:28 PM CDT (5/28) 9:05 AM CDT (5/28)
Length of Visible Light 15h 52m
Length of Day
14h 48m
Waning Gibbous, 82% of the Moon is Illuminated
May 28
Waning Gibbous
May 31
Last Quarter
Jun 8
New
Jun 16
First Quarter
Jun 23
Full

Hourly Weather History & Observations

Time (CDT) Temp. Heat Index Dew Point Humidity Pressure Visibility Wind Dir Wind Speed Gust Speed Precip Events Conditions
2:55 AM 64.4 °F - 62.6 °F 94% 29.91 in 10.0 mi South 6.9 mph - N/A   Overcast
3:15 AM 64.4 °F - 62.6 °F 94% 29.90 in 10.0 mi South 6.9 mph - N/A   Overcast
3:35 AM 62.6 °F - 60.8 °F 94% 29.90 in 10.0 mi South 6.9 mph - N/A   Mostly Cloudy
3:55 AM 64.4 °F - 60.8 °F 88% 29.90 in 10.0 mi South 8.1 mph - N/A   Overcast
4:15 AM 64.4 °F - 60.8 °F 88% 29.90 in 10.0 mi South 9.2 mph - N/A   Mostly Cloudy
4:35 AM 64.4 °F - 60.8 °F 88% 29.91 in 10.0 mi South 9.2 mph - N/A   Overcast
4:55 AM 64.4 °F - 60.8 °F 88% 29.91 in 10.0 mi South 8.1 mph - N/A   Scattered Clouds
5:15 AM 62.6 °F - 60.8 °F 94% 29.90 in 10.0 mi South 9.2 mph - N/A   Clear
5:35 AM 64.4 °F - 60.8 °F 88% 29.90 in 10.0 mi SSW 11.5 mph - N/A   Clear
5:55 AM 64.4 °F - 60.8 °F 88% 29.91 in 10.0 mi SSW 11.5 mph - N/A   Clear
6:15 AM 66.2 °F - 60.8 °F 83% 29.91 in 10.0 mi South 15.0 mph - N/A   Clear
6:35 AM 64.4 °F - 60.8 °F 88% 29.91 in 10.0 mi SSW 16.1 mph - N/A   Clear
6:55 AM 66.2 °F - 60.8 °F 83% 29.91 in 10.0 mi SSW 15.0 mph 19.6 mph N/A   Clear
7:15 AM 66.2 °F - 62.6 °F 88% 29.92 in 10.0 mi SSW 19.6 mph 25.3 mph N/A   Clear
7:35 AM 68.0 °F - 62.6 °F 83% 29.92 in 10.0 mi SSW 19.6 mph - N/A   Clear
7:55 AM 68.0 °F - 62.6 °F 83% 29.91 in 10.0 mi SSW 17.3 mph 24.2 mph N/A   Partly Cloudy
8:15 AM 69.8 °F - 62.6 °F 78% 29.91 in 10.0 mi SSW 19.6 mph 24.2 mph N/A   Clear
8:35 AM 69.8 °F - 62.6 °F 78% 29.90 in 10.0 mi SSW 17.3 mph - N/A   Clear
8:55 AM 69.8 °F - 64.4 °F 83% 29.91 in 10.0 mi SSW 17.3 mph 23.0 mph N/A   Clear
9:15 AM 71.6 °F - 64.4 °F 78% 29.91 in 10.0 mi SSW 16.1 mph 21.9 mph N/A   Clear
9:35 AM 71.6 °F - 64.4 °F 78% 29.91 in 10.0 mi SSW 18.4 mph 24.2 mph N/A   Partly Cloudy
9:55 AM 71.6 °F - 64.4 °F 78% 29.91 in 10.0 mi SSW 18.4 mph 23.0 mph N/A   Partly Cloudy
10:15 AM 73.4 °F - 66.2 °F 78% 29.91 in 10.0 mi SSW 18.4 mph 23.0 mph N/A   Mostly Cloudy
10:35 AM 73.4 °F - 66.2 °F 78% 29.91 in 10.0 mi SW 19.6 mph 23.0 mph N/A   Overcast
10:55 AM 73.4 °F - 66.2 °F 78% 29.91 in 10.0 mi SW 16.1 mph 23.0 mph N/A   Overcast
11:15 AM 73.4 °F - 66.2 °F 78% 29.91 in 10.0 mi SW 16.1 mph 24.2 mph N/A   Overcast
11:35 AM 73.4 °F - 66.2 °F 78% 29.91 in 10.0 mi SW 16.1 mph 25.3 mph N/A   Mostly Cloudy
11:55 AM 75.2 °F - 66.2 °F 73% 29.88 in 10.0 mi SSW 20.7 mph - N/A   Partly Cloudy
12:15 PM 75.2 °F - 66.2 °F 73% 29.87 in 10.0 mi SSW 23.0 mph 32.2 mph N/A   Clear
12:35 PM 78.8 °F - 68.0 °F 69% 29.87 in 10.0 mi SSW 23.0 mph 32.2 mph N/A   Clear
12:55 PM 78.8 °F - 66.2 °F 65% 29.88 in 10.0 mi SW 26.5 mph 36.8 mph N/A   Scattered Clouds
1:15 PM 80.6 °F 83.2 °F 68.0 °F 65% 29.87 in 10.0 mi SW 24.2 mph 34.5 mph N/A   Scattered Clouds
1:35 PM 78.8 °F - 66.2 °F 65% 29.87 in 10.0 mi SW 20.7 mph 28.8 mph N/A   Scattered Clouds
1:55 PM 78.8 °F - 66.2 °F 65% 29.88 in 10.0 mi SW 17.3 mph 29.9 mph N/A   Overcast
2:15 PM 78.8 °F - 66.2 °F 65% 29.88 in 10.0 mi SW 20.7 mph 29.9 mph N/A   Overcast
2:35 PM 78.8 °F - 66.2 °F 65% 29.88 in 10.0 mi SSW 21.9 mph 28.8 mph N/A   Scattered Clouds
2:55 PM 78.8 °F - 66.2 °F 65% 29.88 in 10.0 mi SW 19.6 mph 28.8 mph N/A   Mostly Cloudy
3:15 PM 80.6 °F 82.7 °F 66.2 °F 61% 29.87 in 10.0 mi SSW 17.3 mph 24.2 mph N/A   Scattered Clouds
3:35 PM 80.6 °F 82.7 °F 66.2 °F 61% 29.87 in 10.0 mi SW 18.4 mph 29.9 mph N/A   Clear
3:55 PM 80.6 °F 82.7 °F 66.2 °F 61% 29.87 in 10.0 mi SW 17.3 mph 23.0 mph N/A   Partly Cloudy
4:15 PM 78.8 °F - 66.2 °F 65% 29.87 in 10.0 mi SW 15.0 mph 23.0 mph N/A   Mostly Cloudy
4:35 PM 78.8 °F - 66.2 °F 65% 29.87 in 10.0 mi SW 17.3 mph 23.0 mph N/A   Mostly Cloudy
4:55 PM 78.8 °F - 66.2 °F 65% 29.88 in 10.0 mi SW 16.1 mph - N/A   Mostly Cloudy
5:15 PM 80.6 °F 82.7 °F 66.2 °F 61% 29.87 in 10.0 mi SW 18.4 mph 23.0 mph N/A   Mostly Cloudy
5:35 PM 78.8 °F - 68.0 °F 69% 29.87 in 10.0 mi SSW 10.4 mph - N/A   Partly Cloudy
5:55 PM 78.8 °F - 68.0 °F 69% 29.87 in 10.0 mi SSW 12.7 mph 18.4 mph N/A   Clear
6:15 PM 78.8 °F - 68.0 °F 69% 29.86 in 10.0 mi SSW 15.0 mph - N/A   Clear
6:35 PM 78.8 °F - 66.2 °F 65% 29.87 in 10.0 mi SSW 13.8 mph - N/A   Clear
6:55 PM 78.8 °F - 66.2 °F 65% 29.87 in 10.0 mi SSW 12.7 mph - N/A   Clear
7:15 PM 78.8 °F - 66.2 °F 65% 29.87 in 10.0 mi SSW 12.7 mph - N/A   Clear
7:35 PM 77.0 °F - 66.2 °F 69% 29.85 in 10.0 mi SSW 11.5 mph - N/A   Clear
7:55 PM 75.2 °F - 66.2 °F 73% 29.86 in 10.0 mi SSW 12.7 mph - N/A   Partly Cloudy
8:15 PM 75.2 °F - 66.2 °F 73% 29.86 in 10.0 mi SSW 12.7 mph - N/A   Clear
8:35 PM 75.2 °F - 64.4 °F 69% 29.86 in 10.0 mi SSW 11.5 mph - N/A   Clear
8:55 PM 75.2 °F - 64.4 °F 69% 29.85 in 10.0 mi South 11.5 mph - N/A   Clear
9:15 PM 73.4 °F - 64.4 °F 73% 29.87 in 10.0 mi SSW 11.5 mph - N/A   Clear
9:35 PM 73.4 °F - 64.4 °F 73% 29.87 in 10.0 mi SSW 15.0 mph - N/A   Clear
9:55 PM 73.4 °F - 64.4 °F 73% 29.89 in 10.0 mi SSW 15.0 mph - N/A   Clear
10:15 PM 73.4 °F - 64.4 °F 73% 29.90 in 10.0 mi SSW 15.0 mph - N/A   Partly Cloudy
10:35 PM 73.4 °F - 64.4 °F 73% 29.91 in 10.0 mi SSW 13.8 mph - N/A   Mostly Cloudy
10:55 PM 73.4 °F - 64.4 °F 73% 29.91 in 10.0 mi SSW 15.0 mph 20.7 mph N/A   Mostly Cloudy
11:15 PM 73.4 °F - 64.4 °F 73% 29.91 in 10.0 mi SSW 12.7 mph - N/A   Scattered Clouds
11:35 PM 73.4 °F - 64.4 °F 73% 29.91 in 10.0 mi SW 15.0 mph - N/A   Partly Cloudy
11:55 PM 73.4 °F - 64.4 °F 73% 29.92 in 10.0 mi SW 11.5 mph - N/A   Mostly Cloudy